User: anonymous   Login
Location: Limoges
(45.8354°N, 1.2645°E)
Time: 13:01:26
(UTC+01:00)
Language:

Tiros 1 despin weight - Orbit

View from above orbital plane
View from above orbital plane
View from above satellite
View from above satellite

Ground track
Ground track

The orbit data is extracted from the following two-line orbital elements,

1 00115U 60002D   24052.87617061  .00003838  00000-0  43027-3 0  9995
2 00115  48.1629 276.6043 0031217  67.4388 292.9825 14.88410294391604
Epoch (UTC): 21 February 2024 21:01:41
Eccentricity: 0.0031217
inclination: 48.1629°
perigee height: 581 km
apogee height: 625 km
right ascension of ascending node: 276.6043°
argument of perigee: 67.4388°
revolutions per day: 14.88410294
mean anomaly at epoch: 292.9825°
orbit number at epoch: 39160

The dashed part of the orbit path shows where the satellite is in the earth's shadow,  

DLR